Weather History for Pasco, WA

Change the Weather History Date:

Thursday, October 10, 2013

  Actual Average Record
Temperature  
Mean Temperature 56 °F 54 °F  
Max Temperature 66 °F 69 °F 83 °F (1996)
Min Temperature 45 °F 39 °F 28 °F (2008)
Degree Days  
Heating Degree Days 9 11  
Month to date heating degree days 134 93  
Since 1 July heating degree days 202 204  
Cooling Degree Days 0 0  
Month to date cooling degree days 0 0  
Year to date cooling degree days 995 709  
Growing Degree Days 7 (Base 50)    
Moisture  
Dew Point 40 °F    
Average Humidity 53    
Maximum Humidity 74    
Minimum Humidity 31    
Precipitation  
Precipitation 0.00 in - 0.18 in (1962)
Month to date precipitation 0.03  
Year to date precipitation 4.34  
Snow  
Snow 0.00 in - - ()
Snow Depth 0.00 in    
Sea Level Pressure  
Sea Level Pressure 29.91 in    
Wind  
Wind Speed 5 mph (South)    
Max Wind Speed 10 mph    
Max Gust Speed 13 mph    
Visibility 10 miles    
Events      
T = Trace of Precipitation, MM = Missing Value Source: NWS Daily Summary

Daily Weather History Graph

Daily Weather History Graph

Search for Another Location

Airport:

Trip Planner

Search our weather history database for the weather conditions in past years. The results will help you decide how hot, cold, wet, or windy it might be!

Date:

Astronomy

Oct. 10, 2013 Rise Set
Actual Time 7:07 AM PDT 6:18 PM PDT
Civil Twilight 6:37 AM PDT 6:48 PM PDT
Nautical Twilight 6:02 AM PDT 7:23 PM PDT
Astronomical Twilight 5:27 AM PDT 7:58 PM PDT
Moon 1:16 PM PDT (10/10) 10:49 PM PDT (10/10)
Length of Visible Light 12h 11m
Length of Day
11h 11m
Waxing Crescent, 37% of the Moon is Illuminated
Oct 10
Waxing Crescent
Oct 11
First Quarter
Oct 18
Full
Oct 26
Last Quarter
Nov 3
New

Hourly Weather History & Observations

Time (PDT) Temp. Dew Point Humidity Pressure Visibility Wind Dir Wind Speed Gust Speed Precip Events Conditions
12:53 AM 50.0 °F 43.0 °F 77% 29.92 in 10.0 mi East 4.6 mph - N/A   Clear
1:53 AM 50.0 °F 42.1 °F 74% 29.90 in 10.0 mi ESE 3.5 mph - N/A   Clear
2:53 AM 51.1 °F 42.1 °F 71% 29.89 in 10.0 mi South 5.8 mph - N/A   Clear
3:53 AM 51.1 °F 39.9 °F 66% 29.88 in 10.0 mi South 10.4 mph - N/A   Clear
4:53 AM 51.1 °F 39.9 °F 66% 29.89 in 10.0 mi SSW 4.6 mph - N/A   Overcast
5:53 AM 51.1 °F 39.9 °F 66% 29.87 in 10.0 mi South 6.9 mph - N/A   Overcast
6:53 AM 50.0 °F 39.9 °F 68% 29.87 in 10.0 mi SSW 4.6 mph - N/A   Overcast
7:53 AM 50.0 °F 41.0 °F 71% 29.90 in 10.0 mi Calm Calm - N/A   Overcast
8:53 AM 52.0 °F 41.0 °F 66% 29.90 in 10.0 mi Calm Calm - N/A   Mostly Cloudy
9:53 AM 55.9 °F 41.0 °F 57% 29.91 in 10.0 mi SSW 9.2 mph - N/A   Scattered Clouds
10:53 AM 57.9 °F 41.0 °F 53% 29.91 in 10.0 mi West 5.8 mph - N/A   Clear
11:53 AM 60.1 °F 41.0 °F 49% 29.91 in 10.0 mi West 3.5 mph - N/A   Clear
12:53 PM 62.1 °F 39.0 °F 43% 29.90 in 10.0 mi Variable 3.5 mph - N/A   Clear
1:53 PM 63.0 °F 35.1 °F 35% 29.89 in 10.0 mi Variable 3.5 mph - N/A   Clear
2:53 PM 64.9 °F 34.0 °F 32% 29.89 in 10.0 mi WNW 5.8 mph - N/A   Clear
3:53 PM 64.9 °F 36.0 °F 34% 29.89 in 10.0 mi SSE 5.8 mph - N/A   Clear
4:53 PM 64.0 °F 37.0 °F 37% 29.90 in 10.0 mi SSE 6.9 mph - N/A   Partly Cloudy
5:53 PM 61.0 °F 37.9 °F 42% 29.91 in 10.0 mi SE 8.1 mph - N/A   Clear
6:53 PM 57.0 °F 39.9 °F 53% 29.92 in 10.0 mi ESE 5.8 mph - N/A   Mostly Cloudy
7:53 PM 57.9 °F 41.0 °F 53% 29.94 in 10.0 mi South 5.8 mph - N/A   Mostly Cloudy
8:53 PM 55.0 °F 39.0 °F 55% 29.95 in 10.0 mi South 8.1 mph - N/A   Mostly Cloudy
9:53 PM 51.1 °F 39.9 °F 66% 29.97 in 10.0 mi West 3.5 mph - N/A   Clear
10:53 PM 51.1 °F 39.0 °F 63% 29.99 in 10.0 mi Calm Calm - N/A   Clear
11:53 PM 50.0 °F 39.0 °F 66% 30.00 in 10.0 mi NW 3.5 mph - N/A   Clear